TOM213 EGNT-LCPH

Flight info

Callsign TOM213
Flight time 4h 17m
Altitude 33000
Route GIRLI P18 GASKO DCT MAMUL L603 DOLAS DCT NAVPI DCT NOLRU DCT DOJOH DCT DODEN/N0461F350 DCT NEGIX DCT DINKU M867 XERUM DCT BAVAX DCT RADIZ DCT ZARVE DCT TUPUS DCT MONID DCT ETOBI DCT OSLUD DCT MEDUX UM867 KOGAT DCT ERANA UL737 TSL UN130 ESOPO DCT MES UL609 RDS UM601 EVENO DCT DASNI/N0464F330 M32 TOBAL
Aircraft B738/M-SDE2E3FGHIRWXY/LB1

Departure

Time 2026-05-09 07:19
Airport Newcastle International Airport (EGNT)

Arrival

Time 2026-05-09 11:37
Airport Paphos International Airport (LCPH)
Time Latitude Longitude Altitude Speed Heading
2026-05-09 06:54 55.03725 -1.70593 265 ft 0 kts 239°
2026-05-09 07:12 55.03731 -1.70576 265 ft 2 kts 239°
2026-05-09 07:12 55.03739 -1.70553 265 ft 2 kts 239°
2026-05-09 07:13 55.03744 -1.70536 264 ft 0 kts 239°
2026-05-09 07:13 55.03753 -1.70517 264 ft 2 kts 215°
2026-05-09 07:13 55.03766 -1.70506 264 ft 2 kts 191°
2026-05-09 07:13 55.03781 -1.70506 264 ft 2 kts 164°
2026-05-09 07:14 55.03794 -1.70518 264 ft 2 kts 138°
2026-05-09 07:14 55.03803 -1.70538 264 ft 2 kts 112°
2026-05-09 07:14 55.03806 -1.70554 264 ft 0 kts 96°
2026-05-09 07:14 55.03806 -1.70565 264 ft 0 kts 94°
2026-05-09 07:16 55.03806 -1.70564 264 ft 0 kts 94°
2026-05-09 07:16 55.03801 -1.70496 264 ft 9 kts 104°
2026-05-09 07:16 55.03733 -1.70426 264 ft 15 kts 187°
2026-05-09 07:17 55.03641 -1.70453 265 ft 12 kts 211°
2026-05-09 07:17 55.03601 -1.70549 265 ft 10 kts 256°
2026-05-09 07:17 55.03585 -1.70618 266 ft 6 kts 215°
2026-05-09 07:17 55.03533 -1.70637 266 ft 8 kts 187°
2026-05-09 07:18 55.03488 -1.70642 267 ft 7 kts 181°
2026-05-09 07:18 55.03431 -1.70640 267 ft 9 kts 177°
2026-05-09 07:18 55.03373 -1.70597 267 ft 10 kts 108°
2026-05-09 07:18 55.03384 -1.70517 267 ft 6 kts 64°
2026-05-09 07:19 55.03491 -1.70120 263 ft 74 kts 64°
2026-05-09 07:19 55.03811 -1.68914 248 ft 142 kts 65°
2026-05-09 07:19 55.04287 -1.67080 426 ft 181 kts 64°
2026-05-09 07:19 55.04803 -1.65200 1419 ft 171 kts 60°
2026-05-09 07:20 55.05359 -1.63425 2103 ft 175 kts 63°
2026-05-09 07:20 55.05905 -1.61357 2329 ft 200 kts 66°
2026-05-09 07:20 55.06415 -1.59003 2782 ft 216 kts 75°
2026-05-09 07:20 55.06524 -1.56311 3237 ft 233 kts 99°
2026-05-09 07:21 55.05940 -1.53690 3925 ft 238 kts 124°
2026-05-09 07:21 55.04780 -1.51884 5009 ft 224 kts 156°
2026-05-09 07:21 55.03218 -1.51522 5408 ft 241 kts 192°
2026-05-09 07:21 55.01608 -1.52418 6184 ft 241 kts 199°
2026-05-09 07:22 55.00005 -1.53143 6913 ft 245 kts 189°
2026-05-09 07:22 54.98263 -1.53530 7392 ft 259 kts 188°
2026-05-09 07:22 54.96489 -1.54175 7875 ft 268 kts 202°
2026-05-09 07:22 54.94817 -1.55675 8175 ft 273 kts 212°
2026-05-09 07:23 54.93246 -1.57483 8183 ft 271 kts 214°
2026-05-09 07:23 54.91674 -1.59308 8189 ft 271 kts 213°
2026-05-09 07:23 54.90093 -1.61042 8187 ft 272 kts 212°
2026-05-09 07:23 54.88473 -1.62736 8183 ft 271 kts 211°
2026-05-09 07:24 54.86830 -1.64409 8177 ft 271 kts 211°
2026-05-09 07:24 54.85215 -1.66046 8179 ft 271 kts 211°
2026-05-09 07:24 54.83582 -1.67708 8184 ft 271 kts 211°
2026-05-09 07:24 54.81971 -1.69354 8180 ft 271 kts 211°
2026-05-09 07:25 54.80339 -1.71027 8178 ft 271 kts 211°
2026-05-09 07:25 54.78731 -1.72674 8171 ft 271 kts 211°
2026-05-09 07:25 54.77117 -1.74326 8169 ft 271 kts 211°
2026-05-09 07:25 54.75473 -1.75992 8168 ft 271 kts 210°
2026-05-09 07:26 54.73864 -1.77614 8170 ft 270 kts 211°
2026-05-09 07:26 54.72227 -1.79267 8172 ft 271 kts 210°
2026-05-09 07:26 54.70536 -1.80654 8183 ft 275 kts 199°
2026-05-09 07:26 54.68623 -1.81425 8755 ft 282 kts 190°
2026-05-09 07:27 54.66734 -1.81927 9620 ft 277 kts 189°
2026-05-09 07:27 54.64823 -1.82432 10286 ft 279 kts 190°
2026-05-09 07:27 54.62908 -1.82994 10723 ft 290 kts 191°
2026-05-09 07:27 54.60873 -1.83628 11086 ft 302 kts 191°
2026-05-09 07:28 54.58754 -1.84296 11427 ft 316 kts 192°
2026-05-09 07:28 54.56560 -1.84989 11791 ft 328 kts 192°
2026-05-09 07:28 54.54279 -1.85705 12089 ft 342 kts 191°
2026-05-09 07:28 54.51914 -1.86451 12337 ft 356 kts 191°
2026-05-09 07:29 54.49421 -1.87235 12578 ft 370 kts 191°
2026-05-09 07:29 54.46849 -1.88043 12969 ft 380 kts 191°
2026-05-09 07:29 54.44249 -1.88857 13500 ft 385 kts 191°
2026-05-09 07:29 54.41610 -1.89683 14072 ft 388 kts 191°
2026-05-09 07:30 54.38983 -1.90502 14682 ft 391 kts 191°
2026-05-09 07:30 54.36302 -1.91335 15254 ft 394 kts 192°
2026-05-09 07:30 54.33613 -1.92168 15790 ft 397 kts 192°
2026-05-09 07:30 54.30873 -1.93016 16313 ft 401 kts 192°
2026-05-09 07:31 54.28145 -1.93846 16849 ft 404 kts 191°
2026-05-09 07:31 54.25326 -1.94373 17345 ft 409 kts 184°
2026-05-09 07:31 54.22470 -1.94097 17836 ft 416 kts 173°
2026-05-09 07:31 54.19677 -1.92918 18239 ft 424 kts 163°
2026-05-09 07:32 54.16929 -1.91030 18735 ft 428 kts 159°
2026-05-09 07:32 54.14226 -1.88868 19314 ft 430 kts 157°
2026-05-09 07:32 54.11529 -1.86571 19740 ft 434 kts 156°
2026-05-09 07:32 54.08846 -1.84236 20239 ft 436 kts 156°
2026-05-09 07:33 54.06161 -1.81892 20675 ft 439 kts 156°
2026-05-09 07:33 54.00699 -1.77164 21593 ft 443 kts 156°
2026-05-09 07:33 53.97955 -1.74812 22020 ft 446 kts 157°
2026-05-09 07:34 53.95179 -1.72450 22466 ft 447 kts 157°
2026-05-09 07:34 53.92421 -1.70113 22907 ft 449 kts 157°
2026-05-09 07:34 53.89609 -1.67739 23340 ft 451 kts 158°
2026-05-09 07:34 53.86903 -1.65462 23740 ft 453 kts 158°
2026-05-09 07:35 53.84077 -1.63089 24234 ft 454 kts 157°
2026-05-09 07:35 53.81238 -1.60709 24632 ft 456 kts 158°
2026-05-09 07:35 53.78409 -1.58344 25026 ft 459 kts 157°
2026-05-09 07:35 53.75529 -1.55939 25437 ft 461 kts 158°
2026-05-09 07:36 53.72683 -1.53566 25808 ft 463 kts 157°
2026-05-09 07:36 53.69808 -1.51171 26295 ft 462 kts 157°
2026-05-09 07:36 53.66938 -1.48780 26988 ft 456 kts 157°
2026-05-09 07:36 53.64129 -1.46443 27673 ft 450 kts 157°
2026-05-09 07:37 53.61355 -1.44137 28186 ft 448 kts 157°
2026-05-09 07:37 53.58550 -1.41814 28530 ft 449 kts 157°
2026-05-09 07:37 53.55756 -1.39506 28927 ft 449 kts 157°
2026-05-09 07:37 53.52969 -1.37207 29367 ft 447 kts 157°
2026-05-09 07:38 53.50192 -1.34899 29821 ft 445 kts 156°
2026-05-09 07:38 53.47488 -1.32307 30202 ft 447 kts 151°
2026-05-09 07:38 53.45004 -1.29215 30620 ft 448 kts 144°
2026-05-09 07:38 53.42696 -1.25611 31032 ft 450 kts 138°
2026-05-09 07:39 53.40649 -1.21656 31348 ft 453 kts 132°
2026-05-09 07:39 53.38843 -1.17302 31661 ft 457 kts 126°
2026-05-09 07:39 53.37293 -1.12545 32018 ft 459 kts 120°
2026-05-09 07:39 53.36081 -1.07661 32350 ft 462 kts 114°
2026-05-09 07:40 53.35148 -1.02411 32637 ft 466 kts 108°
2026-05-09 07:40 53.34508 -0.97118 33005 ft 466 kts 104°
2026-05-09 07:40 53.33959 -0.91760 33150 ft 469 kts 104°
2026-05-09 07:41 53.32706 -0.81113 33155 ft 463 kts 107°
2026-05-09 07:41 53.31120 -0.70704 32843 ft 464 kts 110°
2026-05-09 07:42 53.29212 -0.60404 32047 ft 469 kts 112°
2026-05-09 07:42 53.28236 -0.55342 32136 ft 453 kts 111°
2026-05-09 07:42 53.27301 -0.50322 32334 ft 453 kts 111°
2026-05-09 07:42 53.26374 -0.45293 32536 ft 454 kts 110°
2026-05-09 07:43 53.25439 -0.40226 32740 ft 455 kts 110°
2026-05-09 07:43 53.24500 -0.35176 32943 ft 456 kts 110°
2026-05-09 07:43 53.23562 -0.30169 33133 ft 457 kts 111°
2026-05-09 07:44 53.21630 -0.19990 33155 ft 462 kts 111°
2026-05-09 07:44 53.19673 -0.09776 33155 ft 460 kts 111°
2026-05-09 07:45 53.17712 0.00370 33156 ft 462 kts 111°
2026-05-09 07:45 53.15732 0.10548 33149 ft 461 kts 111°
2026-05-09 07:46 53.13745 0.20707 33154 ft 461 kts 111°
2026-05-09 07:46 53.11760 0.30800 33155 ft 461 kts 111°
2026-05-09 07:47 53.09755 0.40944 33156 ft 461 kts 111°
2026-05-09 07:47 53.07727 0.51141 33154 ft 462 kts 111°
2026-05-09 07:48 53.05723 0.61174 33154 ft 462 kts 111°
2026-05-09 07:48 53.03691 0.71293 33151 ft 460 kts 112°
2026-05-09 07:49 53.01659 0.81363 33151 ft 460 kts 111°
2026-05-09 07:49 52.99614 0.91445 33149 ft 460 kts 112°
2026-05-09 07:50 52.97572 1.01437 33153 ft 461 kts 112°
2026-05-09 07:50 52.95399 1.11384 33149 ft 462 kts 113°
2026-05-09 07:51 52.93131 1.21302 33155 ft 460 kts 113°
2026-05-09 07:51 52.90852 1.31184 33157 ft 461 kts 113°
2026-05-09 07:52 52.88558 1.41136 33152 ft 461 kts 113°
2026-05-09 07:52 52.86274 1.51043 33144 ft 461 kts 113°
2026-05-09 07:53 52.83997 1.60899 33144 ft 461 kts 113°
2026-05-09 07:53 52.81697 1.70820 33138 ft 462 kts 114°
2026-05-09 07:54 52.79398 1.80694 33138 ft 462 kts 114°
2026-05-09 07:54 52.77092 1.90556 33130 ft 463 kts 114°
2026-05-09 07:55 52.74770 2.00444 33129 ft 462 kts 113°
2026-05-09 07:55 52.72438 2.10327 33126 ft 461 kts 114°
2026-05-09 07:56 52.70103 2.20175 33128 ft 462 kts 114°
2026-05-09 07:56 52.67770 2.29968 33130 ft 462 kts 113°
2026-05-09 07:57 52.65425 2.39773 33134 ft 463 kts 113°
2026-05-09 07:57 52.63063 2.49601 33133 ft 462 kts 113°
2026-05-09 07:58 52.60686 2.59446 33134 ft 463 kts 113°
2026-05-09 07:58 52.58293 2.69314 33137 ft 463 kts 114°
2026-05-09 07:59 52.55915 2.79080 33133 ft 463 kts 114°
2026-05-09 07:59 52.53471 2.88811 33129 ft 461 kts 116°
2026-05-09 08:00 52.50751 2.98321 33130 ft 462 kts 117°
2026-05-09 08:00 52.47925 3.07791 33133 ft 463 kts 117°
2026-05-09 08:01 52.45103 3.17240 33136 ft 462 kts 117°
2026-05-09 08:01 52.42294 3.26694 33139 ft 463 kts 117°
2026-05-09 08:02 52.39492 3.36147 33141 ft 463 kts 117°
2026-05-09 08:02 52.36669 3.45666 33142 ft 463 kts 117°
2026-05-09 08:03 52.33879 3.55056 33139 ft 463 kts 117°
2026-05-09 08:03 52.31058 3.64518 33138 ft 464 kts 117°
2026-05-09 08:04 52.28226 3.73978 33138 ft 464 kts 117°
2026-05-09 08:04 52.25407 3.83358 33138 ft 464 kts 117°
2026-05-09 08:05 52.22562 3.92788 33139 ft 464 kts 117°
2026-05-09 08:05 52.19717 4.02182 33138 ft 463 kts 117°
2026-05-09 08:06 52.16851 4.11606 33138 ft 464 kts 117°
2026-05-09 08:06 52.13987 4.20987 33134 ft 464 kts 117°
2026-05-09 08:07 52.11111 4.30374 33137 ft 465 kts 117°
2026-05-09 08:07 52.08228 4.39744 33133 ft 465 kts 117°
2026-05-09 08:08 52.05315 4.49175 33134 ft 465 kts 117°
2026-05-09 08:08 52.02413 4.58536 33132 ft 466 kts 116°
2026-05-09 08:09 51.99508 4.67870 33125 ft 466 kts 117°
2026-05-09 08:09 51.96567 4.77281 33125 ft 467 kts 117°
2026-05-09 08:10 51.93648 4.86580 33120 ft 465 kts 117°
2026-05-09 08:10 51.90700 4.95944 33112 ft 465 kts 117°
2026-05-09 08:11 51.87733 5.05334 33112 ft 466 kts 117°
2026-05-09 08:11 51.84789 5.14611 33114 ft 466 kts 117°
2026-05-09 08:12 51.80344 5.28548 33124 ft 466 kts 117°
2026-05-09 08:12 51.77365 5.37849 33124 ft 468 kts 117°
2026-05-09 08:13 51.74363 5.47184 33123 ft 468 kts 116°
2026-05-09 08:13 51.71369 5.56456 33127 ft 467 kts 116°
2026-05-09 08:14 51.68363 5.65732 33134 ft 467 kts 117°
2026-05-09 08:14 51.65341 5.75022 33135 ft 467 kts 117°
2026-05-09 08:15 51.62309 5.84311 33132 ft 467 kts 117°
2026-05-09 08:15 51.59281 5.93556 33132 ft 468 kts 117°
2026-05-09 08:16 51.56228 6.02841 33134 ft 468 kts 117°
2026-05-09 08:16 51.53189 6.12046 33133 ft 468 kts 117°
2026-05-09 08:17 51.50175 6.21195 33131 ft 468 kts 117°
2026-05-09 08:17 51.46729 6.30182 33130 ft 468 kts 122°
2026-05-09 08:18 51.43035 6.38713 33132 ft 470 kts 123°
2026-05-09 08:18 51.39289 6.47247 33131 ft 470 kts 123°
2026-05-09 08:19 51.35558 6.55811 33129 ft 470 kts 123°
2026-05-09 08:19 51.31833 6.64428 33130 ft 470 kts 122°
2026-05-09 08:20 51.28263 6.72712 33129 ft 470 kts 123°
2026-05-09 08:20 51.25312 6.79561 33129 ft 470 kts 123°
2026-05-09 08:21 51.22181 6.86820 33129 ft 470 kts 123°
2026-05-09 08:21 51.18487 6.95359 33124 ft 470 kts 123°
2026-05-09 08:22 51.14810 7.03831 33119 ft 469 kts 123°
2026-05-09 08:22 51.11078 7.12399 33116 ft 469 kts 122°
2026-05-09 08:23 51.07353 7.20928 33115 ft 470 kts 122°
2026-05-09 08:23 51.03634 7.29411 33119 ft 471 kts 122°
2026-05-09 08:24 50.99880 7.37952 33115 ft 470 kts 122°
2026-05-09 08:24 50.96130 7.46453 33115 ft 471 kts 122°
2026-05-09 08:25 50.92376 7.54935 33112 ft 471 kts 122°
2026-05-09 08:25 50.88601 7.63437 33113 ft 472 kts 122°
2026-05-09 08:26 50.84851 7.71759 33113 ft 472 kts 124°
2026-05-09 08:26 50.80483 7.79671 33116 ft 475 kts 133°
2026-05-09 08:27 50.75733 7.86835 33119 ft 476 kts 135°
2026-05-09 08:27 50.70835 7.93910 33126 ft 476 kts 135°
2026-05-09 08:28 50.65956 8.00966 33127 ft 477 kts 135°
2026-05-09 08:28 50.61113 8.08077 33125 ft 477 kts 133°
2026-05-09 08:29 50.56659 8.15766 33125 ft 475 kts 127°
2026-05-09 08:29 50.52558 8.23858 33121 ft 473 kts 125°
2026-05-09 08:30 50.48538 8.31974 33122 ft 473 kts 124°
2026-05-09 08:30 50.44491 8.40050 33117 ft 473 kts 125°
2026-05-09 08:31 50.40380 8.48137 33116 ft 474 kts 125°
2026-05-09 08:31 50.36237 8.56108 33114 ft 475 kts 127°
2026-05-09 08:32 50.31788 8.63749 33113 ft 475 kts 130°
2026-05-09 08:33 50.24927 8.74956 33118 ft 476 kts 131°
2026-05-09 08:33 50.20338 8.82469 33119 ft 476 kts 130°
2026-05-09 08:34 50.15825 8.89896 33116 ft 475 kts 130°
2026-05-09 08:34 50.11263 8.97420 33115 ft 475 kts 130°
2026-05-09 08:35 50.06761 9.04843 33116 ft 475 kts 130°
2026-05-09 08:35 50.02202 9.12343 33115 ft 476 kts 130°
2026-05-09 08:36 49.97669 9.19782 33107 ft 475 kts 130°
2026-05-09 08:36 49.93116 9.27229 33108 ft 476 kts 130°
2026-05-09 08:37 49.88555 9.34665 33104 ft 476 kts 130°
2026-05-09 08:37 49.83959 9.42139 33109 ft 476 kts 130°
2026-05-09 08:38 49.79390 9.49547 33107 ft 478 kts 131°
2026-05-09 08:38 49.74793 9.56976 33103 ft 478 kts 131°
2026-05-09 08:39 49.70190 9.64395 33112 ft 479 kts 131°
2026-05-09 08:39 49.65579 9.71807 33106 ft 479 kts 132°
2026-05-09 08:40 49.60945 9.79230 33107 ft 480 kts 132°
2026-05-09 08:40 49.56301 9.86649 33104 ft 480 kts 132°
2026-05-09 08:41 49.51676 9.94016 33110 ft 482 kts 132°
2026-05-09 08:41 49.47020 10.01414 33103 ft 482 kts 132°
2026-05-09 08:42 49.42347 10.08814 33118 ft 481 kts 133°
2026-05-09 08:42 49.37702 10.16145 33108 ft 482 kts 133°
2026-05-09 08:43 49.33032 10.23499 33107 ft 481 kts 133°
2026-05-09 08:43 49.28339 10.30867 33104 ft 483 kts 133°
2026-05-09 08:44 49.23513 10.37933 33108 ft 483 kts 140°
2026-05-09 08:44 49.18024 10.43861 33100 ft 482 kts 148°
2026-05-09 08:45 49.12273 10.49066 33081 ft 483 kts 150°
2026-05-09 08:45 49.06426 10.54181 33094 ft 482 kts 150°
2026-05-09 08:46 49.00630 10.59287 33098 ft 482 kts 150°
2026-05-09 08:46 48.94879 10.64407 33094 ft 481 kts 150°
2026-05-09 08:47 48.89117 10.69568 33104 ft 482 kts 151°
2026-05-09 08:47 48.83394 10.74890 33097 ft 484 kts 147°
2026-05-09 08:48 48.78229 10.81432 33102 ft 485 kts 136°
2026-05-09 08:48 48.73574 10.88877 33108 ft 488 kts 133°
2026-05-09 08:49 48.69090 10.96550 33098 ft 486 kts 132°
2026-05-09 08:49 48.64623 11.04207 33105 ft 489 kts 133°
2026-05-09 08:50 48.60106 11.11838 33106 ft 488 kts 133°
2026-05-09 08:50 48.55522 11.19490 33104 ft 490 kts 133°
2026-05-09 08:51 48.50948 11.27069 33109 ft 489 kts 134°
2026-05-09 08:51 48.46375 11.34615 33111 ft 492 kts 134°
2026-05-09 08:52 48.41758 11.42208 33105 ft 489 kts 134°
2026-05-09 08:52 48.37178 11.49721 33109 ft 491 kts 134°
2026-05-09 08:53 48.32543 11.57305 33106 ft 493 kts 135°
2026-05-09 08:53 48.27897 11.64884 33112 ft 492 kts 135°
2026-05-09 08:54 48.23186 11.72258 33112 ft 490 kts 139°
2026-05-09 08:54 48.18155 11.79197 33108 ft 491 kts 142°
2026-05-09 08:55 48.13080 11.85952 33107 ft 489 kts 142°
2026-05-09 08:55 48.07975 11.92771 33105 ft 491 kts 142°
2026-05-09 08:56 48.02920 11.99578 33106 ft 491 kts 142°
2026-05-09 08:56 47.97824 12.06475 33110 ft 493 kts 142°
2026-05-09 08:57 47.92776 12.13314 33102 ft 493 kts 142°
2026-05-09 08:57 47.87693 12.20191 33115 ft 491 kts 142°
2026-05-09 08:58 47.82606 12.27055 33115 ft 492 kts 142°
2026-05-09 08:58 47.77534 12.33880 33127 ft 490 kts 142°
2026-05-09 08:59 47.72493 12.40645 33130 ft 490 kts 142°
2026-05-09 08:59 47.67451 12.47391 33135 ft 487 kts 142°
2026-05-09 09:00 47.62410 12.54118 33142 ft 488 kts 142°
2026-05-09 09:00 47.57502 12.60983 33138 ft 489 kts 139°
2026-05-09 09:01 47.52668 12.68072 33143 ft 488 kts 139°
2026-05-09 09:01 47.47848 12.75163 33149 ft 489 kts 139°
2026-05-09 09:02 47.43023 12.82197 33153 ft 487 kts 140°
2026-05-09 09:02 47.38151 12.89238 33156 ft 488 kts 140°
2026-05-09 09:03 47.33317 12.96186 33159 ft 487 kts 140°
2026-05-09 09:03 47.28467 13.03130 33159 ft 488 kts 140°
2026-05-09 09:04 47.23607 13.10066 33162 ft 486 kts 140°
2026-05-09 09:04 47.18747 13.16985 33156 ft 486 kts 140°
2026-05-09 09:05 47.13904 13.23861 33146 ft 487 kts 140°
2026-05-09 09:05 47.08983 13.30828 33143 ft 486 kts 140°
2026-05-09 09:06 47.04132 13.37679 33140 ft 486 kts 140°
2026-05-09 09:06 46.99270 13.44528 33131 ft 486 kts 140°
2026-05-09 09:07 46.94400 13.51370 33129 ft 485 kts 140°
2026-05-09 09:07 46.89534 13.58186 33123 ft 484 kts 140°
2026-05-09 09:08 46.84657 13.65002 33133 ft 484 kts 140°
2026-05-09 09:08 46.79784 13.71793 33137 ft 483 kts 140°
2026-05-09 09:09 46.74935 13.78530 33136 ft 485 kts 140°
2026-05-09 09:09 46.70044 13.85311 33133 ft 483 kts 140°
2026-05-09 09:10 46.65175 13.92043 33130 ft 484 kts 140°
2026-05-09 09:10 46.60295 13.98773 33130 ft 483 kts 140°
2026-05-09 09:11 46.55458 14.05428 33127 ft 482 kts 140°
2026-05-09 09:11 46.50589 14.12108 33123 ft 482 kts 140°
2026-05-09 09:12 46.45714 14.18777 33125 ft 483 kts 140°
2026-05-09 09:12 46.40854 14.25409 33116 ft 481 kts 140°
2026-05-09 09:13 46.36005 14.32009 33112 ft 482 kts 140°
2026-05-09 09:13 46.31122 14.38639 33106 ft 481 kts 140°
2026-05-09 09:14 46.26217 14.45283 33090 ft 480 kts 140°
2026-05-09 09:14 46.21362 14.51841 33083 ft 479 kts 140°
2026-05-09 09:15 46.16514 14.58374 33089 ft 479 kts 140°
2026-05-09 09:15 46.11668 14.64887 33093 ft 479 kts 140°
2026-05-09 09:16 46.06755 14.71473 33092 ft 477 kts 141°
2026-05-09 09:16 45.99451 14.81231 33089 ft 478 kts 141°
2026-05-09 09:17 45.94557 14.87751 33088 ft 478 kts 141°
2026-05-09 09:17 45.89650 14.94271 33084 ft 478 kts 141°
2026-05-09 09:18 45.84816 15.00893 33087 ft 478 kts 139°
2026-05-09 09:18 45.80121 15.07609 33085 ft 479 kts 138°
2026-05-09 09:19 45.75412 15.14376 33082 ft 478 kts 138°
2026-05-09 09:19 45.70786 15.21220 33085 ft 481 kts 136°
2026-05-09 09:20 45.66259 15.28301 33083 ft 482 kts 135°
2026-05-09 09:20 45.61795 15.35358 33083 ft 482 kts 135°
2026-05-09 09:21 45.57262 15.42492 33083 ft 482 kts 135°
2026-05-09 09:21 45.52759 15.49529 33080 ft 482 kts 135°
2026-05-09 09:22 45.48222 15.56580 33074 ft 481 kts 135°
2026-05-09 09:22 45.43708 15.63569 33075 ft 482 kts 135°
2026-05-09 09:23 45.39142 15.70616 33079 ft 482 kts 136°
2026-05-09 09:23 45.34620 15.77576 33080 ft 482 kts 136°
2026-05-09 09:24 45.30068 15.84565 33082 ft 482 kts 136°
2026-05-09 09:24 45.25535 15.91509 33084 ft 482 kts 136°
2026-05-09 09:25 45.20978 15.98472 33086 ft 481 kts 136°
2026-05-09 09:25 45.16434 16.05399 33089 ft 482 kts 136°
2026-05-09 09:26 45.11877 16.12326 33087 ft 482 kts 136°
2026-05-09 09:26 45.07288 16.19282 33088 ft 482 kts 136°
2026-05-09 09:27 45.02703 16.26217 33086 ft 483 kts 136°
2026-05-09 09:27 44.98144 16.33096 33084 ft 482 kts 136°
2026-05-09 09:28 44.93557 16.39999 33086 ft 481 kts 136°
2026-05-09 09:28 44.89120 16.46661 33086 ft 482 kts 136°
2026-05-09 09:29 44.84501 16.53577 33089 ft 481 kts 136°
2026-05-09 09:29 44.79896 16.60457 33091 ft 481 kts 136°
2026-05-09 09:30 44.75275 16.67342 33091 ft 482 kts 136°
2026-05-09 09:30 44.70694 16.74151 33093 ft 481 kts 136°
2026-05-09 09:31 44.66069 16.81010 33098 ft 481 kts 136°
2026-05-09 09:32 44.59189 16.91181 33101 ft 481 kts 136°
2026-05-09 09:32 44.54758 16.98250 33102 ft 482 kts 132°
2026-05-09 09:33 44.50601 17.05577 33109 ft 484 kts 130°
2026-05-09 09:33 44.46450 17.12972 33108 ft 483 kts 131°
2026-05-09 09:34 44.42263 17.20323 33113 ft 484 kts 131°
2026-05-09 09:34 44.38032 17.27655 33110 ft 483 kts 131°
2026-05-09 09:36 44.21055 17.56668 33115 ft 482 kts 131°
2026-05-09 09:37 44.16806 17.63879 33114 ft 482 kts 131°
2026-05-09 09:37 44.12557 17.71073 33116 ft 482 kts 132°
2026-05-09 09:38 44.08277 17.78301 33108 ft 482 kts 132°
2026-05-09 09:38 44.04015 17.85482 33108 ft 483 kts 132°
2026-05-09 09:39 43.99736 17.92672 33116 ft 482 kts 132°
2026-05-09 09:39 43.95466 17.99830 33118 ft 482 kts 132°
2026-05-09 09:40 43.91179 18.07000 33120 ft 481 kts 132°
2026-05-09 09:40 43.86913 18.14115 33120 ft 481 kts 132°
2026-05-09 09:41 43.82626 18.21247 33127 ft 482 kts 132°
2026-05-09 09:41 43.78341 18.28359 33139 ft 481 kts 131°
2026-05-09 09:42 43.74033 18.35492 33133 ft 483 kts 131°
2026-05-09 09:42 43.69724 18.42609 33126 ft 482 kts 131°
2026-05-09 09:43 43.65411 18.49715 33113 ft 482 kts 131°
2026-05-09 09:43 43.61092 18.56813 33109 ft 482 kts 131°
2026-05-09 09:44 43.56803 18.63844 33102 ft 482 kts 131°
2026-05-09 09:44 43.52478 18.70918 33108 ft 482 kts 132°
2026-05-09 09:45 43.48161 18.77959 33111 ft 482 kts 132°
2026-05-09 09:45 43.43894 18.85082 33108 ft 482 kts 130°
2026-05-09 09:46 43.39723 18.92300 33108 ft 482 kts 130°
2026-05-09 09:46 43.35578 18.99499 33112 ft 482 kts 130°
2026-05-09 09:47 43.31392 19.06727 33115 ft 482 kts 130°
2026-05-09 09:47 43.27198 19.13921 33107 ft 483 kts 130°
2026-05-09 09:48 43.22995 19.21098 33112 ft 482 kts 130°
2026-05-09 09:48 43.18805 19.28227 33109 ft 481 kts 130°
2026-05-09 09:49 43.14611 19.35345 33111 ft 482 kts 130°
2026-05-09 09:49 43.10411 19.42456 33111 ft 480 kts 130°
2026-05-09 09:50 43.06231 19.49516 33109 ft 480 kts 130°
2026-05-09 09:50 43.02027 19.56597 33105 ft 479 kts 130°
2026-05-09 09:51 42.97831 19.63650 33104 ft 479 kts 130°
2026-05-09 09:51 42.93613 19.70722 33104 ft 480 kts 131°
2026-05-09 09:52 42.89365 19.77828 33100 ft 479 kts 131°
2026-05-09 09:52 42.85178 19.84815 33096 ft 479 kts 131°
2026-05-09 09:53 42.80953 19.91848 33093 ft 478 kts 131°
2026-05-09 09:53 42.76766 19.98803 33091 ft 477 kts 130°
2026-05-09 09:54 42.72534 20.05818 33094 ft 480 kts 130°
2026-05-09 09:54 42.68311 20.12801 33093 ft 479 kts 130°
2026-05-09 09:55 42.64072 20.19791 33091 ft 479 kts 130°
2026-05-09 09:55 42.59850 20.26737 33091 ft 480 kts 130°
2026-05-09 09:56 42.55606 20.33695 33088 ft 480 kts 130°
2026-05-09 09:56 42.51355 20.40650 33096 ft 480 kts 130°
2026-05-09 09:57 42.47100 20.47596 33094 ft 480 kts 130°
2026-05-09 09:57 42.42820 20.54569 33095 ft 481 kts 130°
2026-05-09 09:58 42.38568 20.61482 33097 ft 479 kts 130°
2026-05-09 09:58 42.34287 20.68425 33097 ft 481 kts 131°
2026-05-09 09:59 42.30016 20.75334 33092 ft 480 kts 131°
2026-05-09 09:59 42.25764 20.82197 33095 ft 479 kts 131°
2026-05-09 10:00 42.21471 20.89111 33093 ft 479 kts 131°
2026-05-09 10:00 42.17212 20.95956 33089 ft 479 kts 131°
2026-05-09 10:01 42.12894 21.02878 33094 ft 480 kts 130°
2026-05-09 10:01 42.08417 21.09548 33094 ft 479 kts 136°
2026-05-09 10:02 42.03598 21.15698 33077 ft 478 kts 138°
2026-05-09 10:02 41.98692 21.21735 33067 ft 477 kts 138°
2026-05-09 10:03 41.93809 21.27767 33077 ft 478 kts 138°
2026-05-09 10:03 41.88957 21.33814 33074 ft 477 kts 137°
2026-05-09 10:04 41.84074 21.39932 33072 ft 478 kts 137°
2026-05-09 10:04 41.79241 21.45997 33074 ft 479 kts 137°
2026-05-09 10:05 41.74360 21.52120 33078 ft 480 kts 137°
2026-05-09 10:05 41.69522 21.58177 33072 ft 480 kts 137°
2026-05-09 10:06 41.64653 21.64260 33068 ft 478 kts 137°
2026-05-09 10:06 41.59803 21.70303 33068 ft 478 kts 138°
2026-05-09 10:07 41.54937 21.76354 33058 ft 478 kts 138°
2026-05-09 10:07 41.50081 21.82380 33062 ft 479 kts 138°
2026-05-09 10:08 41.45189 21.88437 33059 ft 478 kts 138°
2026-05-09 10:08 41.40308 21.94467 33059 ft 479 kts 138°
2026-05-09 10:09 41.35437 22.00472 33046 ft 478 kts 138°
2026-05-09 10:09 41.30592 22.06432 33042 ft 478 kts 138°
2026-05-09 10:10 41.25708 22.12426 33047 ft 479 kts 138°
2026-05-09 10:10 41.20836 22.18394 33047 ft 478 kts 138°
2026-05-09 10:11 41.15926 22.24391 33049 ft 477 kts 139°
2026-05-09 10:11 41.10901 22.30083 33047 ft 478 kts 142°
2026-05-09 10:12 41.05707 22.35586 33040 ft 475 kts 142°
2026-05-09 10:12 41.00570 22.40984 33036 ft 475 kts 142°
2026-05-09 10:13 40.95382 22.46466 33025 ft 478 kts 142°
2026-05-09 10:13 40.90236 22.51931 33011 ft 476 kts 142°
2026-05-09 10:14 40.85062 22.57436 33011 ft 477 kts 142°
2026-05-09 10:14 40.79904 22.62923 33013 ft 478 kts 142°
2026-05-09 10:15 40.74726 22.68423 33012 ft 477 kts 143°
2026-05-09 10:15 40.69527 22.73934 33012 ft 478 kts 143°
2026-05-09 10:16 40.64357 22.79405 33019 ft 479 kts 143°
2026-05-09 10:16 40.59160 22.84889 33016 ft 479 kts 143°
2026-05-09 10:17 40.53985 22.90340 33021 ft 479 kts 143°
2026-05-09 10:17 40.48782 22.95810 33019 ft 480 kts 143°
2026-05-09 10:18 40.43664 23.01540 33019 ft 483 kts 137°
2026-05-09 10:18 40.38982 23.07845 33022 ft 484 kts 134°
2026-05-09 10:19 40.34461 23.14290 33022 ft 482 kts 134°
2026-05-09 10:19 40.29913 23.20733 33017 ft 483 kts 134°
2026-05-09 10:20 40.25309 23.27152 33010 ft 482 kts 134°
2026-05-09 10:20 40.20708 23.33497 33004 ft 484 kts 134°
2026-05-09 10:21 40.18496 23.36533 33004 ft 484 kts 134°
2026-05-09 10:21 40.17242 23.38250 33002 ft 483 kts 135°
2026-05-09 10:22 40.13790 23.42970 33011 ft 484 kts 135°
2026-05-09 10:22 40.09141 23.49316 33012 ft 484 kts 135°
2026-05-09 10:23 40.04481 23.55665 33017 ft 488 kts 135°
2026-05-09 10:23 39.99788 23.62046 33012 ft 486 kts 135°
2026-05-09 10:24 39.95093 23.68416 33015 ft 488 kts 135°
2026-05-09 10:24 39.90379 23.74798 33005 ft 488 kts 135°
2026-05-09 10:25 39.85656 23.81184 33007 ft 490 kts 136°
2026-05-09 10:25 39.80921 23.87568 33014 ft 490 kts 136°
2026-05-09 10:26 39.76196 23.93923 33007 ft 490 kts 136°
2026-05-09 10:26 39.71460 24.00279 33012 ft 492 kts 136°
2026-05-09 10:27 39.66701 24.06656 33007 ft 490 kts 136°
2026-05-09 10:27 39.61963 24.12991 33007 ft 492 kts 136°
2026-05-09 10:28 39.57203 24.19340 33003 ft 491 kts 136°
2026-05-09 10:28 39.52401 24.25730 33011 ft 495 kts 136°
2026-05-09 10:29 39.47608 24.32100 33014 ft 493 kts 136°
2026-05-09 10:29 39.42837 24.38425 33008 ft 496 kts 136°
2026-05-09 10:30 39.37988 24.44836 33010 ft 494 kts 136°
2026-05-09 10:30 39.33189 24.51172 33012 ft 497 kts 136°
2026-05-09 10:31 39.28355 24.57543 33013 ft 495 kts 136°
2026-05-09 10:31 39.23564 24.63851 33008 ft 496 kts 136°
2026-05-09 10:32 39.18727 24.70202 33013 ft 497 kts 137°
2026-05-09 10:32 39.13844 24.76602 33010 ft 499 kts 137°
2026-05-09 10:33 39.08973 24.82971 33009 ft 501 kts 137°
2026-05-09 10:33 39.04101 24.89333 33006 ft 500 kts 137°
2026-05-09 10:34 38.99219 24.95691 33008 ft 502 kts 137°
2026-05-09 10:34 38.91865 25.05240 33026 ft 502 kts 138°
2026-05-09 10:35 38.86920 25.11649 33028 ft 504 kts 138°
2026-05-09 10:35 38.81977 25.18032 33034 ft 507 kts 137°
2026-05-09 10:36 38.77016 25.24434 33030 ft 506 kts 138°
2026-05-09 10:36 38.72047 25.30832 33031 ft 508 kts 138°
2026-05-09 10:37 38.67095 25.37196 33020 ft 506 kts 138°
2026-05-09 10:37 38.62080 25.43624 33026 ft 513 kts 139°
2026-05-09 10:38 38.57077 25.50023 33032 ft 509 kts 139°
2026-05-09 10:38 38.52075 25.56411 33028 ft 512 kts 139°
2026-05-09 10:39 38.47011 25.62858 33030 ft 515 kts 139°
2026-05-09 10:39 38.41957 25.69286 33023 ft 510 kts 140°
2026-05-09 10:40 38.36907 25.75694 33032 ft 514 kts 140°
2026-05-09 10:40 38.31824 25.82126 33036 ft 512 kts 140°
2026-05-09 10:41 38.26772 25.88510 33034 ft 515 kts 140°
2026-05-09 10:41 38.21648 25.94777 33034 ft 510 kts 142°
2026-05-09 10:42 38.16295 26.00720 33046 ft 511 kts 144°
2026-05-09 10:42 38.10881 26.06566 33040 ft 512 kts 144°
2026-05-09 10:43 38.05455 26.12445 33036 ft 513 kts 144°
2026-05-09 10:43 38.00034 26.18362 33035 ft 515 kts 144°
2026-05-09 10:44 37.94606 26.24312 33038 ft 515 kts 144°
2026-05-09 10:44 37.89218 26.30231 33031 ft 513 kts 144°
2026-05-09 10:46 37.75627 26.45078 33036 ft 515 kts 144°
2026-05-09 10:46 37.70208 26.50962 33040 ft 518 kts 144°
2026-05-09 10:47 37.64754 26.56883 33040 ft 514 kts 144°
2026-05-09 10:47 37.59295 26.62800 33043 ft 519 kts 144°
2026-05-09 10:48 37.53847 26.68711 33043 ft 516 kts 144°
2026-05-09 10:48 37.48375 26.74633 33039 ft 520 kts 144°
2026-05-09 10:49 37.42899 26.80548 33036 ft 517 kts 144°
2026-05-09 10:49 37.37446 26.86490 33041 ft 522 kts 143°
2026-05-09 10:50 37.32155 26.92718 33038 ft 521 kts 141°
2026-05-09 10:50 37.26950 26.99064 33039 ft 523 kts 140°
2026-05-09 10:51 37.21722 27.05413 33033 ft 523 kts 141°
2026-05-09 10:51 37.16468 27.11715 33038 ft 525 kts 141°
2026-05-09 10:52 37.11134 27.18062 33044 ft 526 kts 141°
2026-05-09 10:52 37.05821 27.24352 33046 ft 529 kts 141°
2026-05-09 10:53 37.00488 27.30652 33046 ft 526 kts 141°
2026-05-09 10:53 36.95137 27.36957 33053 ft 528 kts 141°
2026-05-09 10:54 36.89805 27.43230 33054 ft 527 kts 141°
2026-05-09 10:54 36.84461 27.49503 33058 ft 528 kts 141°
2026-05-09 10:55 36.79094 27.55792 33048 ft 526 kts 141°
2026-05-09 10:55 36.73745 27.62049 33055 ft 528 kts 141°
2026-05-09 10:56 36.68401 27.68289 33055 ft 525 kts 141°
2026-05-09 10:56 36.63092 27.74471 33052 ft 526 kts 142°
2026-05-09 10:57 36.57735 27.80697 33057 ft 526 kts 141°
2026-05-09 10:57 36.52382 27.86908 33056 ft 525 kts 141°
2026-05-09 10:58 36.47047 27.93086 33057 ft 526 kts 141°
2026-05-09 10:58 36.41695 27.99276 33072 ft 524 kts 141°
2026-05-09 10:59 36.36555 28.05756 33073 ft 529 kts 131°
2026-05-09 10:59 36.32769 28.13552 33070 ft 532 kts 114°
2026-05-09 11:00 36.30187 28.22097 33076 ft 532 kts 108°
2026-05-09 11:00 36.27971 28.30860 33070 ft 532 kts 106°
2026-05-09 11:01 36.25839 28.39599 33065 ft 531 kts 106°
2026-05-09 11:01 36.23682 28.48257 33062 ft 531 kts 107°
2026-05-09 11:02 36.21457 28.56967 33064 ft 530 kts 107°
2026-05-09 11:02 36.19209 28.65617 33068 ft 530 kts 108°
2026-05-09 11:03 36.16951 28.74243 33069 ft 528 kts 108°
2026-05-09 11:03 36.14681 28.82880 33069 ft 528 kts 108°
2026-05-09 11:04 36.12405 28.91522 33064 ft 528 kts 108°
2026-05-09 11:04 36.10130 29.00137 33069 ft 526 kts 108°
2026-05-09 11:05 36.07876 29.08650 33070 ft 525 kts 108°
2026-05-09 11:05 36.05594 29.17248 33072 ft 525 kts 108°
2026-05-09 11:06 36.03328 29.25754 33070 ft 524 kts 108°
2026-05-09 11:06 36.01040 29.34309 33066 ft 523 kts 108°
2026-05-09 11:07 35.98776 29.42747 33058 ft 521 kts 108°
2026-05-09 11:07 35.96487 29.51250 33061 ft 523 kts 108°
2026-05-09 11:08 35.94198 29.59737 33057 ft 523 kts 108°
2026-05-09 11:08 35.91922 29.68202 33053 ft 521 kts 109°
2026-05-09 11:09 35.89639 29.76688 33055 ft 522 kts 109°
2026-05-09 11:09 35.87362 29.85115 33057 ft 520 kts 109°
2026-05-09 11:10 35.85086 29.93500 33054 ft 517 kts 109°
2026-05-09 11:10 35.82806 30.01884 33054 ft 518 kts 108°
2026-05-09 11:11 35.80626 30.10331 33060 ft 520 kts 107°
2026-05-09 11:11 35.78513 30.18833 33054 ft 520 kts 107°
2026-05-09 11:12 35.76408 30.27296 33055 ft 519 kts 107°
2026-05-09 11:12 35.74292 30.35719 33057 ft 519 kts 107°
2026-05-09 11:13 35.72139 30.44206 33055 ft 518 kts 107°
2026-05-09 11:13 35.69984 30.52651 33052 ft 520 kts 107°
2026-05-09 11:14 35.67818 30.61098 33057 ft 518 kts 107°
2026-05-09 11:14 35.65649 30.69529 33058 ft 518 kts 108°
2026-05-09 11:15 35.63459 30.77940 33058 ft 518 kts 109°
2026-05-09 11:15 35.60724 30.86149 33055 ft 518 kts 118°
2026-05-09 11:16 35.57161 30.93781 33065 ft 516 kts 124°
2026-05-09 11:16 35.53218 31.01153 33055 ft 516 kts 126°
2026-05-09 11:17 35.49239 31.08395 33061 ft 515 kts 126°
2026-05-09 11:17 35.45236 31.15703 33061 ft 516 kts 126°
2026-05-09 11:18 35.41272 31.22993 33060 ft 515 kts 125°
2026-05-09 11:18 35.37316 31.30295 33057 ft 516 kts 125°
2026-05-09 11:19 35.33360 31.37604 33069 ft 516 kts 125°
2026-05-09 11:19 35.31383 31.41256 32881 ft 514 kts 125°
2026-05-09 11:19 35.29401 31.44914 31992 ft 519 kts 125°
2026-05-09 11:19 35.27424 31.48556 31357 ft 515 kts 125°
2026-05-09 11:20 35.25451 31.52190 30726 ft 511 kts 125°
2026-05-09 11:20 35.23509 31.55763 29941 ft 511 kts 125°
2026-05-09 11:20 35.21547 31.59369 28879 ft 510 kts 125°
2026-05-09 11:20 35.19586 31.62965 27372 ft 510 kts 125°
2026-05-09 11:21 35.17622 31.66563 25831 ft 509 kts 125°
2026-05-09 11:21 35.15692 31.70095 24385 ft 505 kts 125°
2026-05-09 11:21 35.13760 31.73629 23266 ft 493 kts 125°
2026-05-09 11:21 35.11900 31.77032 22077 ft 484 kts 125°
2026-05-09 11:22 35.10034 31.80440 20764 ft 478 kts 124°
2026-05-09 11:22 35.08205 31.83776 19529 ft 472 kts 124°
2026-05-09 11:22 35.06410 31.87046 18326 ft 464 kts 124°
2026-05-09 11:22 35.04635 31.90280 17217 ft 456 kts 124°
2026-05-09 11:23 35.02904 31.93429 16129 ft 448 kts 124°
2026-05-09 11:23 35.01207 31.96514 15304 ft 433 kts 124°
2026-05-09 11:23 34.99566 31.99495 14652 ft 416 kts 124°
2026-05-09 11:23 34.97980 32.02373 14057 ft 416 kts 123°
2026-05-09 11:24 34.96341 32.05344 13315 ft 428 kts 123°
2026-05-09 11:24 34.94682 32.08348 12626 ft 425 kts 123°
2026-05-09 11:24 34.93051 32.11298 11967 ft 421 kts 123°
2026-05-09 11:24 34.91409 32.14264 11218 ft 414 kts 123°
2026-05-09 11:25 34.89869 32.17036 10968 ft 383 kts 123°
2026-05-09 11:25 34.88436 32.19613 10853 ft 353 kts 123°
2026-05-09 11:25 34.87098 32.22016 10705 ft 333 kts 123°
2026-05-09 11:25 34.85817 32.24318 10510 ft 322 kts 123°
2026-05-09 11:26 34.84595 32.26512 10367 ft 312 kts 123°
2026-05-09 11:26 34.83395 32.28669 10208 ft 301 kts 123°
2026-05-09 11:26 34.82245 32.30731 10028 ft 292 kts 123°
2026-05-09 11:26 34.81115 32.32757 9704 ft 291 kts 123°
2026-05-09 11:27 34.79971 32.34810 9309 ft 291 kts 123°
2026-05-09 11:27 34.78845 32.36830 8932 ft 290 kts 123°
2026-05-09 11:27 34.77717 32.38856 8575 ft 288 kts 123°
2026-05-09 11:27 34.76600 32.40860 8213 ft 287 kts 123°
2026-05-09 11:28 34.75474 32.42879 7851 ft 286 kts 123°
2026-05-09 11:28 34.74368 32.44860 7522 ft 284 kts 123°
2026-05-09 11:28 34.73271 32.46821 7382 ft 273 kts 123°
2026-05-09 11:28 34.72237 32.48671 7306 ft 261 kts 123°
2026-05-09 11:29 34.71220 32.50452 7248 ft 250 kts 126°
2026-05-09 11:29 34.70157 32.52101 7169 ft 249 kts 128°
2026-05-09 11:29 34.69035 32.53710 6792 ft 253 kts 129°
2026-05-09 11:29 34.67874 32.55339 6452 ft 254 kts 129°
2026-05-09 11:30 34.66718 32.56969 6108 ft 255 kts 129°
2026-05-09 11:30 34.65578 32.58591 5783 ft 255 kts 129°
2026-05-09 11:30 34.64436 32.60225 5472 ft 252 kts 129°
2026-05-09 11:30 34.63311 32.61837 5224 ft 244 kts 129°
2026-05-09 11:31 34.62232 32.63382 4946 ft 237 kts 129°
2026-05-09 11:31 34.61193 32.64875 4724 ft 227 kts 127°
2026-05-09 11:31 34.60511 32.66525 4478 ft 217 kts 95°
2026-05-09 11:31 34.60712 32.68269 4259 ft 202 kts 65°
2026-05-09 11:32 34.61438 32.69651 4023 ft 192 kts 47°
2026-05-09 11:32 34.62411 32.70702 3813 ft 184 kts 29°
2026-05-09 11:32 34.63607 32.71134 3665 ft 175 kts
2026-05-09 11:32 34.64787 32.70941 3589 ft 173 kts 335°
2026-05-09 11:33 34.65664 32.69926 3492 ft 180 kts 296°
2026-05-09 11:33 34.65897 32.68444 3186 ft 183 kts 275°
2026-05-09 11:33 34.66567 32.65539 2701 ft 176 kts 293°
2026-05-09 11:34 34.67004 32.64164 2468 ft 174 kts 291°
2026-05-09 11:34 34.67418 32.62805 2237 ft 172 kts 292°
2026-05-09 11:34 34.67823 32.61481 2009 ft 161 kts 292°
2026-05-09 11:34 34.68204 32.60254 1838 ft 152 kts 292°
2026-05-09 11:35 34.68571 32.59055 1631 ft 152 kts 292°
2026-05-09 11:35 34.68932 32.57879 1415 ft 148 kts 292°
2026-05-09 11:35 34.69294 32.56703 1218 ft 147 kts 292°
2026-05-09 11:35 34.69647 32.55556 1026 ft 145 kts 292°
2026-05-09 11:36 34.69990 32.54426 838 ft 143 kts 292°
2026-05-09 11:36 34.70336 32.53301 632 ft 140 kts 292°
2026-05-09 11:36 34.70674 32.52195 485 ft 141 kts 292°
2026-05-09 11:36 34.71014 32.51070 316 ft 139 kts 293°
2026-05-09 11:37 34.71350 32.50013 80 ft 131 kts 292°
2026-05-09 11:37 34.71627 32.49115 43 ft 82 kts 290°
2026-05-09 11:37 34.71753 32.48740 46 ft 33 kts 287°
2026-05-09 11:37 34.71807 32.48512 50 ft 21 kts 283°
2026-05-09 11:38 34.71746 32.48393 50 ft 13 kts 199°
2026-05-09 11:38 34.71658 32.48351 46 ft 13 kts 204°
2026-05-09 11:38 34.71589 32.48315 44 ft 9 kts 204°
2026-05-09 11:38 34.71522 32.48288 41 ft 11 kts 198°
2026-05-09 11:39 34.71445 32.48259 38 ft 7 kts 195°
2026-05-09 11:39 34.71430 32.48261 37 ft 2 kts 161°
2026-05-09 11:39 34.71398 32.48310 36 ft 10 kts 115°
2026-05-09 11:40 34.71358 32.48439 34 ft 8 kts 111°
2026-05-09 11:40 34.71347 32.48504 33 ft 8 kts 80°
2026-05-09 11:40 34.71370 32.48575 32 ft 9 kts 67°
2026-05-09 11:40 34.71395 32.48641 32 ft 6 kts 65°
2026-05-09 11:41 34.71387 32.48682 32 ft 6 kts 158°
2026-05-09 11:41 34.71344 32.48705 33 ft 3 kts 156°
2026-05-09 11:41 34.71338 32.48708 33 ft 0 kts 156°
2026-05-09 11:41 34.71331 32.48712 33 ft 0 kts 155°